Terminal Aerodrome Forecast
Issued by NWS

Home | Current Version | Previous Version | Graphics & Text | Print | Product List | Glossary On
Versions: 1 2 3 4 5 6 7 8 9 10 11 12 13 14 15 16 17 18
000
FTUS43 KPAH 280200 AAB
TAFCGI
TAF AMD
KCGI 280207Z 2802/2824 35009KT 4SM -RA BR SCT008 OVC025
     FM280800 35009KT 4SM -DZ BR BKN008 OVC030
     FM281300 36008KT P6SM BKN015
     FM281600 36008KT P6SM BKN035 OVC050=

USA.gov is the U.S. government's official web portal to all federal, state and local government web resources and services.